Regional Weather Roundup
Issued by NWS

Home | Current Version | Previous Version | Text Only | Print | Product List | Glossary Off
Versions: 1 2 3 4 5 6 7 8 9 10 11 12 13 14 15 16 17 18 19 20 21 22 23 24 25 26 27 28 29 30 31 32 33 34 35 36 37 38 39 40 41 42 43 44 45 46 47 48 49 50

000
ASUS43 KLMK 061902
RWRKY
KENTUCKY REGIONAL WEATHER ROUNDUP
NATIONAL WEATHER SERVICE LOUISVILLE KY
200 PM EST FRI MAR 06 2015

NOTE "FAIR" INDICATES FEW OR NO CLOUDS BELOW 12,000 FEET
WITH NO SIGNIFICANT WEATHER AND/OR OBSTRUCTIONS TO VISIBILITY.

KYZ001>023-026-027-061>063-070>075-062000-
WESTERN AND SOUTH CENTRAL KENTUCKY

CITY           SKY/WX    TMP DP  RH WIND       PRES   REMARKS
PADUCAH        SUNNY     26   9  48 VRB6      30.53F WCI  19
HENDERSON      SUNNY     25   7  46 SE10      30.52F WCI  15
OWENSBORO      SUNNY     25  12  57 SW7       30.54F WCI  17
HOPKINSVILLE   SUNNY     25  13  60 N6        30.53F WCI  18
BOWLING GREEN  FLURRIES  26  10  50 SW5       30.54F WCI  20
GLASGOW        NOT AVBL
$$

KYZ024-025-028>034-038-045-046-053-062000-
NORTH CENTRAL KENTUCKY

CITY           SKY/WX    TMP DP  RH WIND       PRES   REMARKS
LOUISVILLE/SDF SUNNY     31  12  45 VRB3      30.51F
LOUISVILLE/LOU SUNNY     27  12  53 S6        30.51F WCI  20
FORT KNOX      SUNNY     27  13  54 SW7       30.49F WCI  20
$$

KYZ035>037-039>044-047>052-055>060-089>105-062000-
NORTHEAST KENTUCKY

CITY           SKY/WX    TMP DP  RH WIND       PRES   REMARKS
LEXINGTON      SUNNY     22  11  62 SW7       30.49F WCI  13
COVINGTON      MOSUNNY   24  11  57 S10       30.47F WCI  14
FRANKFORT      SUNNY     23  11  60 S6        30.49F WCI  16
$$

KYZ054-064>069-076>088-106>120-062000-
SOUTHEAST KENTUCKY

CITY           SKY/WX    TMP DP  RH WIND       PRES   REMARKS
JACKSON        SUNNY     28  10  46 NW3       30.45F
LONDON         SUNNY     27   7  42 VRB3      30.47F
SOMERSET       NOT AVBL
MIDDLESBORO    SUNNY     33  18  54 CALM      30.45F
MONTICELLO     CLEAR     27  11  51 CALM      30.53F
$$



USA.gov is the U.S. government's official web portal to all federal, state and local government web resources and services.